Hourly Data Report for October 27, 2015

All times are specified in Local Standard Time (LST). Add 1 hour to adjust for Daylight Saving Time where and when it is observed.

QIKIQTARJUAQ A
NUNAVUT

67°32'48.000" N
64°01'54.000" W
5.50 m
2400577
YVM

Download Data

Hourly Data (October 2015)
Hourly Data Report for October 27, 2015
Temp Definition
°C
Dew Point Temp Definition
°C
Rel Hum Definition
%
Wind Dir Definition
10's deg

Wind Spd Definition
km/h
Visibility Definition
km
Stn Press Definition
kPa
Hmdx Definition


Wind Chill Definition


Weather Definition


TIME
00:00 Legend Double Dagger -10.8 -21.1 43 17 15 16.1 99.66   -18 LegendNANA
01:00 Legend Double Dagger -10.9 -19.4 50 18 15 16.1 99.71   -18 LegendNANA
02:00 Legend Double Dagger -11.7 -19.3 54 14 13 16.1 99.77   -18 LegendNANA
03:00 Legend Double Dagger -11.5 -19.6 52 19 17 16.1 99.82   -19 LegendNANA
04:00 Legend Double Dagger -11.1 -20.1 48 17 13 16.1 99.86   -18 LegendNANA
05:00 Legend Double Dagger -12.5 -19.4 57 16 9 16.1 99.90   -18 LegendNANA
06:00 Legend Double Dagger -12.2 -18.7 59 14 13 16.1 99.94   -19 LegendNANA
07:00 Legend Double Dagger -12.1 -18.2 61 15 8 16.1 99.97   -17 LegendNANA
08:00 Legend Double Dagger -11.0 -17.0 62 19 11 16.1 100.00   -17 LegendNANA
09:00 Legend Double Dagger -11.8 -18.5 58 18 13 16.1 100.01   -18 LegendNANA
10:00 Legend Double Dagger -13.1 -18.6 64 15 8 16.1 100.01   -18 LegendNANA
11:00 Legend Double Dagger -11.6 -17.7 61 10 5 16.1 100.00   -15 LegendNANA
12:00 Legend Double Dagger -11.0 -16.5 64 11 5 16.1 100.01   -14 LegendNANA
13:00 Legend Double Dagger -10.2 -15.5 66   0 16.1 100.05     LegendNANA
14:00 Legend Double Dagger -10.9 -15.5 69 14 8 16.1 100.09   -16 LegendNANA
15:00 Legend Double Dagger -9.7 -14.0 71 14 8 16.1 100.14   -14 LegendNANA
16:00 Legend Double Dagger -9.8 -14.5 69 16 5 16.1 100.20   -13 LegendNANA
17:00 Legend Double Dagger -9.9 -14.7 68 LegendMM 4 16.1 100.24   -12 LegendNANA
18:00 Legend Double Dagger -9.6 -14.1 70 18 8 16.1 100.29   -14 LegendNANA
19:00 Legend Double Dagger -9.1 -13.3 72 12 4 16.1 100.33   -11 LegendNANA
20:00 Legend Double Dagger -8.4 -12.9 70 16 5 16.1 100.36   -11 LegendNANA
21:00 Legend Double Dagger -9.0 -12.7 75 14 9 16.1 100.39   -14 LegendNANA
22:00 Legend Double Dagger -8.2 -12.2 73 14 8 16.1 100.39   -12 LegendNANA
23:00 Legend Double Dagger -8.9 -12.4 76 14 8 16.1 100.41   -13 LegendNANA

Notes on Data Quality.

Legend

  • E = Estimated
  • M = Missing
  • NA = Not Available
  • ‡ = Partner data that is not subject to review by the National Climate Archives
Date modified: